DW3212 Weather Reports


time (UTC)temp
C
wind
direction
speed
KPH
gust
KPH
rain 1hr
cm
rain 24hr
cm
rain mn
cm
humidity
%
barometer
mb
20260506073056 11 0.0 0.0 0.00 0.05 0.00 89 1008.8
20260506071559 12 0.0 0.0 0.00 0.05 0.00 87 1008.8
20260506061556 13 0.0 0.0 0.00 0.05 0.00 83 1008.7
20260506044558 14 0.0 0.0 0.00 0.05 0.00 79 1009.2
20260506043056 14 0.0 0.0 0.00 0.05 0.00 77 1009.2
20260506041605 15 0.0 0.0 0.00 0.05 0.00 77 1009.0
20260506040110 15 0.0 0.0 0.00 0.05 0.00 75 1009.2
20260506034556 15 0.0 0.0 0.00 0.05 0.05 75 1009.1
20260506033058 15 0.0 0.0 0.00 0.05 0.05 76 1009.1
20260506031603 14 0.0 0.0 0.03 0.05 0.05 78 1009.2
20260506030116 13 0.0 0.0 0.03 0.05 0.05 80 1009.4
20260506024622 13 0.0 0.0 0.03 0.05 0.05 81 1009.6
20260506023054 13 0.0 0.0 0.03 0.05 0.05 81 1009.2
20260506021600 13 0.0 0.0 0.00 0.03 0.03 81 1009.3
20260506020053 14 0.0 0.0 0.00 0.03 0.03 79 1009.5
20260506014612 15 0.0 0.0 0.00 0.03 0.03 75 1009.4
20260506013055 15 0.0 0.0 0.00 0.03 0.03 70 1009.3
20260506011553 15 0.0 0.0 0.00 0.03 0.03 70 1009.0
20260506010104 16 0.0 0.0 0.00 0.03 0.03 67 1008.9
20260506004554 15 0.0 0.0 0.00 0.03 0.03 70 1008.5
20260506003057 14 0.0 0.0 0.00 0.03 0.03 82 1008.2
20260506001601 15 0.0 0.0 0.00 0.03 0.03 72 1008.2
20260506000107 15 0.0 0.0 0.00 0.03 0.03 71 1008.6
20260505234600 15 0.0 0.0 0.00 0.03 0.03 74 1008.2
20260505233109 15 0.0 0.0 0.00 0.03 0.03 73 1008.1
20260505231558 15 0.0 0.0 0.00 0.03 0.03 73 1008.0
20260505230056 15 0.0 0.0 0.00 0.03 0.03 74 1007.9
20260505224557 15 0.0 0.0 0.00 0.03 0.03 76 1008.1
20260505223055 16 0.0 0.0 0.00 0.03 0.03 74 1007.8
20260505221602 18 0.0 0.0 0.00 0.03 0.03 64 1007.1
20260505220057 21 0.0 0.0 0.00 0.03 0.03 40 1006.3
20260505214605 21 0.0 0.0 0.00 0.03 0.03 39 1005.9
20260505213118 22 0.0 0.0 0.00 0.03 0.03 39 1005.9
20260505211556 22 0.0 0.0 0.00 0.03 0.03 38 1005.5
20260505210106 22 0.0 0.0 0.00 0.03 0.03 39 1005.3
20260505204559 22 0.0 0.0 0.00 0.03 0.03 40 1005.2
20260505203057 22 0.0 0.0 0.00 0.03 0.03 39 1005.3
20260505201555 22 0.0 0.0 0.00 0.03 0.03 39 1005.3
20260505200056 22 0.0 0.0 0.00 0.03 0.03 39 1005.4
20260505194600 22 0.0 0.0 0.00 0.03 0.03 39 1005.3
20260505193124 22 0.0 0.0 0.00 0.03 0.03 44 1005.5
20260505191605 21 0.0 0.0 0.00 0.03 0.03 41 1005.6
20260505190055 22 0.0 0.0 0.00 0.03 0.03 42 1005.6
20260505184601 21 0.0 0.0 0.00 0.03 0.03 41 1005.7
20260505183057 22 0.0 0.0 0.00 0.03 0.03 41 1005.8
20260505181557 23 0.0 0.0 0.00 0.03 0.03 39 1005.9
20260505180058 23 0.0 0.0 0.00 0.03 0.03 37 1006.1
20260505174558 23 0.0 0.0 0.00 0.03 0.03 36 1006.5
20260505173054 22 0.0 0.0 0.00 0.03 0.03 38 1006.8
20260505171558 22 0.0 0.0 0.00 0.03 0.03 39 1006.7
20260505170059 22 0.0 0.0 0.00 0.03 0.03 42 1007.0
20260505164558 22 0.0 0.0 0.00 0.03 0.03 41 1006.8
20260505163058 22 0.0 0.0 0.00 0.03 0.03 41 1007.3
20260505161602 22 0.0 0.0 0.00 0.03 0.03 45 1007.5
20260505160110 22 0.0 0.0 0.00 0.03 0.03 45 1007.8
20260505153105 21 0.0 0.0 0.00 0.03 0.03 45 1008.3
20260505151604 20 0.0 0.0 0.00 0.03 0.03 47 1008.2
20260505124603 15 0.0 0.0 0.00 0.03 0.03 65 1008.6
20260505123112 15 0.0 0.0 0.00 0.03 0.03 67 1008.6
20260505121556 15 0.0 0.0 0.03 0.03 0.03 67 1008.5
20260505114558 13 0.0 0.0 0.03 0.03 0.03 68 1008.4
20260505113059 12 0.0 0.0 0.03 0.03 0.03 75 1008.6
20260505111554 13 0.0 0.0 0.00 0.00 0.00 74 1008.7
20260505110106 15 0.0 0.0 0.00 0.00 0.00 57 1008.7
20260505101556 13 0.0 0.0 0.00 0.00 0.00 60 1007.9
20260505100058 12 0.0 0.0 0.00 0.00 0.00 61 1007.7
20260505094557 12 0.0 0.0 0.00 0.00 0.00 63 1007.8
20260505093054 12 0.0 0.0 0.00 0.00 0.00 63 1007.8
20260505091619 12 0.0 0.0 0.00 0.00 0.00 61 1007.7
20260505090120 12 0.0 0.0 0.00 0.00 0.00 61 1007.9
20260505084613 12 0.0 0.0 0.00 0.00 0.00 61 1008.2
20260505083108 12 0.0 0.0 0.00 0.00 0.00 60 1008.2
20260505081603 12 0.0 0.0 0.00 0.00 0.00 60 1008.3